Dewpoint
41 41 42 42 42 43 44 45 45 45 45 45 45 46 47 47 48 45 43 44 37 34 35 36 37 35 39 37 36 41 40 40 40 36 35 34 31 28 26 27 31 30 29 30 31 30 25 30 28 32 35 31 28 24
40 41 41 41 42 42 43 44 44 44 44 44 45 45 46 47 47 45 41 45 43 37 38 40 40 40 42 42 39 41 36 39 39 35 35 34 32 33 29 26 31 28 29 30 31 30 34 31 32 35 35 35 30 30
40 40 41 41 41 42 43 43 43 43 44 44 45 46 46 47 47 45 42 45 42 36 36 38 38 40 40 42 44 39 42 42 42 44 39 37 34 35 31 29 27 32 36 34 34 33 36 38 38 37 34 34 32 35
41 41 41 41 41 42 42 42 43 43 44 44 45 45 45 46 46 45 42 45 41 38 33 34 37 38 39 41 43 44 43 44 44 44 41 39 35 39 34 35 34 35 38 36 38 37 36 36 38 38 35 34 35 35
43 42 42 42 41 42 42 42 42 43 43 44 44 45 45 46 46 45 44 45 43 38 32 33 36 37 38 40 41 42 41 41 41 39 38 36 38 37 37 36 36 38 37 35 33 33 35 35 38 37 35 35 33 31
43 43 43 42 42 42 42 42 42 43 43 43 44 45 45 45 45 42 38 44 45 40 34 30 35 37 38 39 40 40 40 41 39 38 37 38 39 37 34 31 30 32 34 33 33 35 38 38 36 34 33 30 29 26
43 44 43 43 42 42 42 42 42 43 43 44 44 44 45 45 43 37 36 42 45 41 34 29 30 35 38 38 38 38 39 38 37 37 35 33 35 36 34 28 26 28 30 33 36 38 35 35 35 34 31 29 24 17
42 43 44 43 43 42 42 42 42 42 43 43 44 44 45 44 42 39 43 45 43 39 36 30 28 30 37 34 33 37 35 36 36 34 35 33 32 35 30 28 30 31 30 32 34 37 35 36 33 32 29 23 16 11
42 43 43 43 43 43 43 42 42 42 43 43 43 44 43 40 38 38 44 44 43 38 31 30 25 25 36 34 34 35 36 31 34 32 30 31 27 28 27 25 26 28 30 31 33 35 34 33 31 28 24 19 14 10
43 43 42 42 42 42 43 44 44 43 43 43 42 39 35 39 43 43 40 38 38 36 35 29 28 28 32 32 31 31 33 29 27 27 30 29 26 25 24 25 28 28 29 32 33 32 33 32 30 26 21 17 13 9
43 43 42 42 42 42 42 42 42 42 42 41 34 32 38 42 39 36 32 31 30 28 32 29 28 29 33 28 29 30 28 28 24 25 27 25 22 26 25 25 25 26 27 31 32 29 33 33 31 25 19 14 11 7
43 43 42 42 42 42 43 42 42 42 41 35 37 40 41 36 33 29 28 30 29 28 31 27 29 30 32 33 30 31 28 28 23 30 27 23 22 23 23 24 26 26 26 28 31 31 32 31 29 23 18 14 9 6
43 43 43 42 42 43 43 43 43 42 41 41 37 32 32 32 27 26 22 26 25 31 30 30 30 32 32 33 30 29 26 25 29 26 22 21 24 29 29 30 29 31 32 32 31 31 29 27 24 21 17 12 8 9
43 43 43 43 43 43 43 43 43 41 39 33 31 25 28 26 27 25 24 24 30 30 30 31 29 30 31 29 29 26 26 28 24 21 18 26 28 27 29 32 31 31 31 31 29 26 25 23 21 18 15 13 12 15
43 43 43 43 43 43 43 43 42 41 37 32 31 27 27 30 30 31 28 30 30 31 31 29 30 30 29 28 28 26 24 22 22 17 21 27 29 30 31 31 30 30 30 28 25 23 22 21 19 18 18 13 17 18
42 43 41 43 42 43 42 42 41 38 35 33 30 28 29 29 30 32 31 30 31 31 30 30 30 28 27 27 26 24 21 19 21 26 30 31 31 31 31 31 30 29 28 26 23 21 20 20 18 16 13 13 17 16
42 41 42 42 43 42 42 39 38 33 32 30 29 30 30 30 30 32 33 31 32 30 27 29 26 24 27 25 23 24 22 22 27 31 33 32 31 31 31 29 28 27 26 23 20 17 16 13 14 13 12 12 12 13
41 42 43 44 42 41 39 37 33 32 29 29 29 30 31 32 32 33 32 32 31 28 28 25 28 26 25 21 20 23 28 29 32 32 33 33 31 30 29 27 25 24 23 19 15 13 11 12 11 11 10 10 10 11
42 43 43 42 40 36 32 33 35 30 30 32 32 32 31 32 32 32 33 32 31 31 31 28 26 23 24 25 25 29 30 31 31 32 31 31 30 28 26 24 23 22 19 15 11 11 12 10 9 9 9 9 10 10
41 41 41 40 39 35 32 32 37 30 29 31 33 31 32 32 33 33 33 32 31 30 29 27 26 27 29 33 33 33 34 33 31 30 29 29 27 25 24 22 20 18 15 11 11 12 9 9 9 9 10 10 11 11
40 41 40 40 37 34 33 32 32 33 33 31 32 32 31 33 32 32 32 33 30 27 24 30 32 33 34 34 35 35 33 31 29 29 28 27 26 24 22 20 17 15 14 13 11 10 9 9 10 10 14 16 17 15
39 40 38 37 33 32 32 35 31 32 31 31 31 31 30 29 30 31 34 31 29 28 34 34 34 33 32 32 33 34 33 32 30 29 27 27 25 23 21 19 17 17 15 17 12 14 11 10 11 13 17 20 17 17
38 36 35 32 30 31 30 34 29 28 27 29 29 28 28 29 31 34 30 30 31 34 34 33 32 32 32 31 32 31 31 29 28 27 26 25 24 22 20 19 19 20 18 14 14 16 14 13 15 19 19 18 18 18
31 29 28 29 28 27 31 29 30 28 29 27 26 25 27 28 31 30 28 29 31 32 32 31 31 30 30 29 29 29 29 28 27 25 26 24 22 22 21 20 20 19 17 16 16 17 18 18 18 18 18 18 18 17
27 24 26 25 28 27 26 26 26 25 25 26 24 25 27 29 27 26 25 28 30 30 31 30 30 29 28 28 27 26 26 26 25 23 23 23 22 21 20 19 18 17 18 21 20 20 20 20 19 19 18 18 17 16
19 22 22 24 24 25 24 23 24 24 24 24 24 27 27 27 25 24 23 28 29 30 29 29 29 28 27 26 25 24 24 24 23 22 22 22 22 23 21 19 18 17 18 22 22 20 19 18 19 17 17 17 16 16
19 23 25 26 26 26 26 27 27 25 24 23 24 25 24 23 24 25 29 30 29 30 30 30 29 28 26 25 25 24 23 23 23 22 22 22 23 23 24 22 19 18 19 22 23 22 18 17 17 17 17 18 17 16
24 24 23 23 24 25 24 25 25 25 25 24 24 22 23 21 21 25 27 28 30 30 29 28 28 27 25 24 24 23 23 22 22 21 20 20 22 24 24 24 24 20 21 24 24 23 20 19 18 18 18 18 17 18
23 21 21 21 22 22 22 23 24 25 25 24 23 21 21 22 24 24 26 27 27 26 25 25 24 23 23 23 23 23 23 24 22 20 20 19 18 19 22 22 21 22 23 21 20 21 21 20 19 19 18 18 18 18
22 21 19 19 18 18 22 24 24 25 25 24 22 21 21 22 24 27 28 27 27 28 26 25 25 25 23 22 22 22 24 26 26 23 20 19 21 22 22 22 22 22 22 20 19 17 16 17 16 17 17 16 17 16
22 22 20 21 20 23 25 27 26 25 24 23 23 21 21 23 25 25 24 25 24 25 25 25 25 25 24 22 22 20 19 21 19 21 25 26 24 22 23 22 22 22 22 20 19 18 17 17 17 17 16 16 16 15
20 20 19 18 20 25 26 24 23 23 24 22 22 23 22 22 20 22 23 25 24 25 24 25 24 24 25 26 26 26 24 21 19 19 22 23 24 23 21 21 21 22 20 19 19 18 16 17 18 17 15 14 14 13
21 21 21 21 21 21 22 22 22 22 21 20 20 20 18 19 17 20 24 25 26 25 24 25 25 23 22 23 23 23 21 19 16 17 19 21 21 20 19 19 20 19 18 18 17 17 17 16 15 14 13 13 12 11
Wind_Speed
35 36 36 36 37 36 35 35 34 31 31 30 28 27 28 27 27 23 11 11 11 8 5 8 3 8 5 9 9 6 8 3 4 11 8 5 6 13 14 11 8 13 11 8 9 8 15 7 7 6 1 1 5 8
38 37 36 36 37 37 37 36 35 33 32 31 29 29 28 28 28 27 13 8 0 5 4 1 4 3 4 5 10 8 4 8 12 9 9 6 9 6 13 13 15 10 12 6 12 8 4 6 7 2 4 6 8 11
41 40 40 39 39 40 39 37 37 36 35 33 31 30 29 29 29 27 16 11 6 5 1 4 7 3 3 4 6 9 4 3 4 1 6 7 6 4 11 16 15 12 3 7 8 10 8 8 9 7 6 6 11 8
41 42 42 42 41 40 39 39 38 37 36 34 32 30 31 29 29 29 17 11 12 5 5 7 0 5 1 3 4 1 6 5 4 2 4 4 5 2 6 5 8 4 8 8 6 15 19 21 16 10 7 9 10 8
40 42 42 42 43 42 41 41 39 37 37 35 33 32 31 30 29 24 16 14 16 8 8 5 5 3 3 4 2 5 8 6 3 3 2 4 1 1 2 3 8 10 12 9 9 16 13 17 8 8 13 14 13 13
40 41 41 43 43 43 43 42 41 40 37 35 34 32 32 31 31 20 9 16 21 9 5 4 1 6 4 7 8 6 4 3 2 4 2 3 2 4 7 9 11 17 25 22 23 12 4 2 5 10 11 14 12 12
34 40 42 43 44 43 43 42 41 40 38 36 35 33 33 33 25 25 7 6 21 9 5 3 3 3 12 9 3 3 3 3 5 4 6 7 7 7 8 26 18 14 21 20 16 9 3 10 7 12 14 14 12 12
33 36 41 43 44 44 43 43 41 40 39 37 36 34 34 34 19 19 5 27 27 9 6 6 5 5 6 6 6 4 5 5 6 5 2 5 4 6 12 10 18 29 29 25 21 20 17 11 14 17 16 16 16 14
36 37 39 41 44 43 42 42 41 41 40 38 37 34 19 17 15 20 18 26 12 7 10 8 12 8 8 4 5 3 4 4 2 7 8 9 14 17 10 20 19 27 26 23 17 16 13 18 20 20 20 19 17 15
38 38 40 40 42 42 41 41 38 43 40 38 29 12 10 16 27 28 10 17 10 7 4 8 9 8 15 8 6 8 4 6 5 8 5 10 27 29 24 24 29 25 26 20 19 18 17 18 22 23 23 19 16 16
40 40 40 40 41 42 42 41 42 42 39 22 9 7 8 38 13 10 9 12 9 9 9 17 19 15 7 13 8 7 6 6 5 7 9 7 11 12 32 42 35 33 30 25 27 16 21 22 25 24 22 19 16 16
41 41 41 41 41 42 41 43 42 36 13 16 13 9 11 9 6 10 9 10 9 10 10 26 25 14 9 7 6 10 7 8 8 10 6 7 9 25 24 26 28 29 27 24 22 17 19 18 23 23 23 20 18 16
40 41 41 41 41 42 43 44 45 29 33 14 7 8 8 8 10 12 23 7 15 10 11 19 20 11 6 7 5 7 10 11 7 6 7 9 15 15 13 8 11 10 15 20 20 17 18 20 23 24 23 20 19 17
40 41 40 40 40 42 44 45 43 33 11 5 7 9 9 10 13 10 21 25 12 17 27 29 19 8 6 9 6 9 8 6 6 7 10 17 24 21 5 7 12 15 18 21 21 22 24 25 23 21 20 21 18 17
43 41 41 39 39 39 41 46 47 21 5 5 7 8 11 5 7 14 17 16 17 24 27 24 9 6 6 6 6 5 8 8 9 15 21 16 8 8 9 11 14 17 19 21 21 23 22 23 22 21 20 20 17 16
44 37 29 41 42 39 49 38 9 4 3 5 5 5 10 15 10 12 20 21 24 27 23 9 6 6 6 7 9 9 7 10 10 13 11 4 4 6 7 10 13 16 20 21 21 22 23 22 22 24 22 17 16 15
36 5 40 42 43 50 41 7 4 4 5 7 4 4 11 13 24 19 22 23 29 25 18 8 12 11 10 7 9 9 12 28 16 10 6 4 6 7 9 12 15 18 21 22 22 22 22 21 23 24 21 16 15 13
17 39 43 42 46 36 5 4 5 5 4 4 8 14 7 9 20 18 13 30 24 21 20 10 9 8 10 11 11 20 16 10 8 4 3 4 6 9 12 15 17 19 21 22 23 23 24 23 22 19 19 18 15 13
35 37 44 44 21 8 5 3 2 5 4 4 9 9 5 11 10 10 18 26 12 10 13 10 7 12 9 10 14 11 13 11 8 5 4 5 7 11 13 15 18 20 22 24 24 21 20 20 18 18 17 17 14 13
48 37 28 20 9 5 5 4 1 6 5 4 6 9 9 8 13 17 21 13 13 10 6 7 7 7 7 5 6 5 7 10 11 9 7 7 9 13 15 18 20 21 21 20 18 19 20 17 15 16 16 15 14 13
23 13 13 8 4 5 5 5 5 5 6 6 7 5 8 10 15 21 16 11 11 9 10 6 4 4 4 4 4 6 8 12 11 10 9 13 15 16 17 16 20 19 20 19 20 18 17 17 16 15 15 13 10 9
6 8 4 3 5 5 5 6 7 6 4 7 5 5 8 8 9 10 8 8 8 13 5 4 6 9 7 5 5 5 4 7 4 6 10 18 21 20 20 20 20 19 19 18 18 19 16 16 16 15 14 13 11 10
8 4 4 3 5 4 6 2 4 4 6 6 6 6 4 5 6 9 5 7 6 5 6 4 6 5 5 4 6 7 9 11 11 11 15 15 15 16 18 19 18 19 18 16 15 17 16 15 16 15 14 13 11 9
4 5 5 4 6 5 3 3 4 6 6 5 5 6 7 5 9 5 6 7 8 6 9 10 10 8 5 7 8 9 10 10 10 12 14 17 18 18 18 17 16 14 14 17 17 16 15 15 16 15 14 13 11 10
5 5 4 6 3 4 4 5 4 4 5 6 6 5 7 7 8 10 6 8 14 16 14 13 13 12 12 10 9 9 10 12 13 15 14 16 18 19 17 14 13 13 16 18 17 17 16 16 16 15 15 13 12 12
5 2 2 3 3 3 6 5 5 6 6 5 4 7 6 7 8 6 6 9 11 14 16 17 15 12 12 12 14 13 12 12 14 16 16 17 20 20 21 20 18 12 14 15 19 19 19 17 16 16 14 13 13 12
4 2 3 2 3 6 5 5 5 5 4 5 7 6 5 6 8 4 3 4 5 7 13 14 15 14 13 13 12 12 12 13 13 12 14 14 11 12 17 22 20 16 18 17 17 19 20 18 16 15 14 12 13 13
3 2 5 2 4 4 4 4 4 4 4 5 11 7 7 2 1 3 3 3 5 12 12 10 9 12 14 14 14 15 13 14 17 18 16 12 8 7 8 9 11 19 16 15 15 14 15 15 15 16 14 14 12 12
3 3 4 7 6 5 5 3 3 3 3 3 4 3 3 3 5 4 3 3 7 11 12 12 12 14 15 13 11 10 14 15 21 21 18 14 9 6 7 10 15 15 14 15 12 12 13 12 13 13 13 11 9 9
3 2 5 4 4 3 3 3 2 3 4 4 5 4 3 4 9 8 5 6 8 9 9 11 13 14 16 16 15 11 4 2 3 9 16 16 13 14 14 14 14 14 15 16 16 15 15 12 12 9 10 8 9 9
2 3 4 4 4 3 4 8 8 5 4 6 8 9 7 4 4 12 13 7 7 9 12 13 11 11 13 14 15 15 11 3 3 5 6 13 16 16 14 14 14 14 15 16 16 15 14 12 11 11 11 10 10 10
3 3 5 5 5 3 2 3 4 5 4 5 4 3 2 3 4 6 11 6 5 8 6 9 12 10 6 7 6 5 9 11 8 6 12 13 15 15 15 14 14 14 15 15 14 13 15 13 11 11 11 11 10 10
4 7 9 7 4 3 3 3 4 4 5 4 5 4 4 3 3 3 6 9 4 3 7 7 8 10 9 7 7 11 12 11 10 10 10 12 16 16 14 13 13 14 16 14 13 13 13 11 10 10 9 9 9 8
Wind_Direction
203 203 203 200 199 197 197 196 195 194 194 196 197 194 192 188 187 188 192 192 197 188 189 218 218 229 199 216 186 161 164 220 193 208 213 189 224 216 234 222 187 183 188 200 218 233 258 140 149 214 17 131 175 164
204 203 202 202 202 199 197 195 196 197 199 199 199 196 192 187 187 185 199 174 314 167 198 305 242 295 311 311 231 188 246 168 192 196 206 202 211 217 223 230 214 224 212 208 209 221 106 194 256 262 281 280 192 167
204 203 203 202 201 199 197 196 197 198 200 199 198 195 191 187 186 186 194 155 141 96 20 219 201 169 277 266 302 209 211 174 195 327 195 214 229 216 221 239 235 225 190 222 241 246 267 270 251 251 237 196 166 160
204 203 203 202 200 199 198 197 197 197 196 196 196 191 189 187 188 186 188 175 159 126 199 216 316 233 311 285 281 302 133 127 122 206 194 192 230 235 254 282 247 262 176 228 255 277 282 274 264 261 195 165 146 142
205 204 202 201 200 198 197 196 195 194 193 193 193 189 187 185 185 186 191 183 165 154 184 158 190 205 218 228 203 141 139 135 149 161 167 199 201 190 236 248 206 212 227 222 247 266 280 282 312 170 174 175 162 161
204 203 201 199 198 197 197 195 192 191 191 189 188 186 184 182 181 167 189 214 188 152 106 168 302 173 158 184 184 159 147 138 173 152 186 211 195 230 237 238 241 229 245 253 255 272 291 264 161 173 178 168 170 163
203 202 199 196 195 194 192 192 190 187 188 187 185 183 180 183 181 181 188 159 155 131 135 148 186 195 161 140 138 129 179 199 213 198 217 244 222 225 246 252 255 253 250 247 244 149 182 189 203 178 165 167 158 146
206 200 195 194 189 190 189 189 188 186 186 185 182 180 180 185 173 198 135 153 148 111 147 177 159 167 184 160 162 175 184 199 202 222 181 219 230 228 250 250 228 239 247 241 237 220 262 186 161 165 169 163 162 158
199 192 185 185 182 184 184 185 185 182 182 181 175 173 172 180 196 196 148 161 156 161 185 160 163 177 176 123 119 132 182 200 182 230 224 211 230 231 240 239 229 237 229 233 229 213 193 177 173 174 175 178 173 171
188 185 182 181 181 178 177 178 175 176 172 170 162 176 169 172 126 120 142 184 202 176 212 174 153 161 180 156 147 141 185 219 223 228 214 238 248 249 252 244 241 237 228 217 189 190 188 184 181 181 186 181 177 171
181 181 180 178 177 175 175 172 174 174 167 175 153 153 171 133 134 165 187 182 186 178 190 180 179 145 194 173 153 185 183 194 233 201 208 241 256 227 232 234 237 235 230 222 220 231 204 195 183 179 178 176 168 162
176 176 177 176 176 175 172 172 171 172 167 154 123 160 135 132 168 159 195 172 189 179 185 172 165 142 150 156 148 175 192 194 240 142 216 250 252 245 251 246 244 242 238 234 208 207 187 178 173 171 169 165 163 157
169 172 172 174 176 172 171 172 172 154 126 138 133 175 128 174 172 184 176 174 178 161 164 149 148 144 136 185 135 171 189 211 131 219 236 249 258 269 269 260 240 218 181 189 190 183 162 155 158 161 161 156 154 156
168 167 167 168 166 168 169 167 155 146 133 150 145 136 182 174 195 184 182 174 161 167 161 157 151 138 139 163 153 180 190 159 222 233 246 248 241 253 255 175 169 176 177 174 170 159 152 152 155 158 152 146 152 148
166 161 161 160 159 159 160 157 154 169 119 137 121 195 183 121 149 167 169 136 151 153 148 146 120 114 122 145 190 154 176 224 222 241 244 259 251 233 212 190 180 174 166 167 160 152 148 145 145 142 133 146 145 138
154 151 160 154 150 141 144 152 131 93 79 136 145 129 122 133 151 152 151 143 151 149 143 131 124 142 177 176 177 200 199 219 222 218 237 202 212 210 201 190 181 169 167 161 156 151 146 146 153 142 144 145 144 152
148 125 153 151 150 150 156 125 103 99 137 146 164 158 152 160 165 158 158 153 157 149 155 144 168 184 135 195 199 192 218 227 216 222 212 201 199 185 176 169 164 163 162 156 149 148 146 149 142 143 150 150 157 156
125 141 147 151 140 141 112 82 116 115 129 162 153 158 174 174 162 160 167 156 160 170 165 169 136 177 188 188 205 218 227 225 212 213 201 180 167 165 169 164 164 161 157 152 148 148 147 149 153 156 151 157 156 164
129 137 136 137 135 106 106 112 227 109 97 112 114 115 138 136 162 145 160 167 156 136 130 155 166 188 202 211 218 207 213 202 203 178 142 147 156 156 158 155 155 156 154 153 152 150 153 162 154 152 157 162 171 176
124 126 128 114 112 100 103 99 267 92 117 118 100 123 119 133 144 143 150 167 157 158 188 202 206 193 199 185 180 176 172 160 151 148 151 152 154 155 156 160 158 155 151 146 143 147 155 150 151 159 160 171 175 172
100 93 84 85 88 87 91 132 106 99 106 103 120 95 104 123 136 149 154 162 174 201 212 217 187 142 126 129 145 140 156 171 185 189 179 171 167 159 161 165 155 151 147 149 155 160 158 160 162 159 161 171 167 157
87 89 88 43 89 78 72 31 101 109 96 130 112 93 111 127 137 158 147 177 205 211 215 194 165 164 182 195 179 173 172 177 164 140 132 150 163 165 162 161 158 153 156 162 163 158 160 160 157 159 166 161 154 150
125 88 82 107 100 87 114 263 110 94 118 135 123 106 116 134 144 134 171 215 232 218 198 167 151 168 180 139 146 161 167 169 169 160 157 161 159 156 153 159 162 152 154 161 155 157 159 152 156 161 159 156 153 153
45 59 55 59 69 100 133 84 99 103 107 148 138 120 141 137 151 192 198 206 223 185 193 178 168 161 167 173 183 185 182 182 162 156 162 157 155 158 160 158 159 161 155 150 154 154 151 158 162 163 163 160 166 179
67 17 43 64 73 109 109 121 121 119 127 150 140 144 150 162 184 192 213 201 189 196 196 187 192 199 198 191 189 181 177 179 168 160 165 164 147 144 144 147 150 154 154 149 156 154 160 164 171 169 167 170 181 191
88 24 60 109 127 129 151 133 149 138 127 142 164 139 155 171 185 215 197 178 184 186 183 181 179 183 195 194 183 174 170 169 164 157 156 159 163 153 148 156 159 166 176 165 153 163 168 169 171 171 174 181 188 191
99 88 71 44 105 127 115 94 120 121 132 148 158 155 154 191 212 165 140 163 168 174 174 178 185 187 172 156 150 147 157 161 161 146 147 157 160 166 166 163 173 167 166 163 164 168 167 168 172 177 181 187 194 199
87 93 147 104 88 44 110 115 139 148 153 159 141 169 177 214 151 16 356 358 130 138 132 126 133 141 142 140 137 133 120 118 112 112 107 96 96 108 108 108 126 143 153 159 161 158 159 168 175 180 186 192 195 197
75 70 86 75 64 50 39 42 70 55 40 125 113 123 129 59 357 325 0 95 133 123 119 120 106 110 106 107 115 131 142 145 144 148 146 148 151 152 138 129 142 146 147 144 136 142 153 164 173 179 183 189 187 183
99 69 90 67 62 54 20 356 72 75 57 71 104 111 80 47 14 13 70 99 122 128 133 133 141 143 141 140 136 132 124 122 136 148 159 168 170 148 155 153 148 146 146 144 137 124 118 124 125 125 150 162 177 185
96 107 90 81 91 56 61 93 101 85 69 77 69 100 101 121 71 36 37 42 98 122 132 138 135 140 142 148 150 144 146 173 156 129 113 129 138 148 148 143 142 145 147 147 149 153 152 158 165 169 180 189 195 199
45 85 124 111 116 88 50 55 59 68 78 89 76 78 85 73 66 36 5 11 114 140 142 149 146 146 125 115 111 94 120 133 132 131 139 135 140 143 142 139 141 144 146 146 150 154 163 165 172 181 188 196 198 203
89 95 95 101 109 111 54 80 80 90 59 68 52 54 52 55 87 10 348 11 11 126 137 123 115 126 125 107 111 116 109 102 94 94 107 123 137 141 138 138 140 142 143 145 148 154 161 167 173 179 186 191 196 205